Lid_Strength_Index
1 1 1 1 1 1 0 1 1 1 1 1 2 1 1 2 2 4 6 3 3 -1 0 5 6 6 6 7 6 6 11 11 10 9 8 6 8 6 4 6 5 4 4 5 5
1 1 1 1 1 1 1 1 1 1 1 2 1 1 2 2 4 5 1 -2 -2 -1 5 7 8 8 8 8 8 9 11 10 7 6 7 7 7 7 7 6 5 5 3 3 4
2 1 1 2 2 1 1 1 1 1 2 2 2 2 2 2 5 4 -2 -2 -2 0 6 6 7 8 9 8 8 8 10 8 7 6 5 6 7 6 8 9 6 6 4 3 5
2 2 2 1 2 2 2 2 2 1 1 2 2 2 2 4 10 4 -2 -2 -2 3 5 5 6 10 11 11 8 10 7 7 6 5 7 7 6 8 7 7 5 5 3 4 5
3 2 2 2 3 2 2 2 2 2 1 2 2 2 3 5 5 1 -2 -2 2 3 3 4 9 10 11 10 8 9 8 7 6 6 6 6 7 7 7 4 4 4 3 5 5
4 3 3 2 3 3 2 2 2 2 1 1 2 2 4 8 3 1 1 3 2 3 4 5 7 7 9 10 10 8 8 8 7 8 7 7 7 8 6 4 4 4 5 5 5
4 4 3 3 2 2 2 2 2 2 1 1 1 2 5 6 1 2 2 3 3 3 5 5 5 7 7 9 8 8 10 8 8 8 8 7 9 8 6 5 5 5 5 5 5
4 4 4 3 2 2 2 2 2 1 1 1 1 3 6 1 2 3 3 3 3 3 4 4 4 7 8 8 8 10 10 13 9 7 7 8 11 8 6 7 5 5 5 4 5
3 3 4 3 3 2 2 2 1 0 1 1 4 5 7 2 4 3 3 4 3 3 4 3 6 8 8 11 13 12 14 12 10 7 8 8 10 8 6 6 8 7 5 5 5
4 4 4 3 3 3 3 2 1 2 2 2 2 6 4 4 4 3 3 3 4 5 6 7 9 11 11 13 16 13 13 12 11 8 8 9 9 7 6 6 6 7 8 7 5
4 4 4 3 3 3 4 4 6 6 4 6 5 5 4 2 2 4 3 4 5 7 10 8 12 13 11 10 9 10 10 11 9 8 9 10 10 8 7 8 8 8 7 6 6
4 4 4 4 3 3 6 6 6 6 9 4 3 4 3 3 6 5 3 7 7 10 8 10 12 8 7 7 8 9 11 11 9 8 9 10 10 9 8 9 8 8 7 6 6
5 4 4 4 4 5 6 4 3 5 9 7 5 4 6 5 7 6 5 6 8 10 10 11 9 6 7 9 9 10 11 11 11 9 8 10 12 10 8 7 7 7 6 6 6
5 5 4 4 5 4 6 3 4 3 12 8 7 7 6 6 7 4 4 6 8 10 9 10 7 8 9 9 9 12 8 8 9 11 14 10 15 11 9 9 8 7 6 6 6
5 5 5 6 7 7 5 4 4 4 20 8 8 5 6 8 7 6 4 6 10 9 9 10 9 9 9 9 8 10 7 9 9 12 13 12 15 12 10 10 9 8 6 7 6
5 5 5 5 6 6 4 3 4 12 19 10 8 9 9 8 8 7 7 6 6 9 9 9 7 8 8 7 7 7 9 10 11 13 16 12 13 13 11 9 8 6 7 6 6
6 6 7 5 6 3 3 5 13 17 8 9 9 9 9 9 9 9 9 10 12 14 13 10 9 7 7 10 9 10 14 18 18 18 16 11 12 12 9 8 7 7 7 7 5
7 7 6 6 4 4 5 9 17 10 10 7 8 9 10 9 9 9 10 11 9 9 11 13 14 9 7 8 11 11 13 15 20 20 17 11 15 13 7 7 6 6 7 6 6
8 5 6 4 4 4 8 14 13 10 8 9 9 11 10 9 9 9 10 11 9 9 13 13 13 7 7 7 8 11 13 12 13 15 18 15 12 9 7 7 7 7 7 7 7
10 7 5 3 3 5 10 12 10 7 7 9 12 10 12 11 11 11 10 8 8 7 8 11 14 9 8 7 8 10 8 15 15 21 22 16 15 14 10 9 7 8 9 8 7
9 7 4 3 4 8 13 11 8 7 8 9 11 11 11 11 11 11 11 9 7 8 7 10 12 12 9 10 11 11 12 12 13 15 20 20 16 9 11 9 8 7 7 8 7
10 10 4 4 10 10 11 10 9 9 7 9 9 10 11 10 11 11 10 9 7 7 10 9 11 14 12 9 7 9 12 12 17 19 16 17 16 8 9 8 8 7 6 6 5
12 10 5 6 13 12 10 10 9 10 9 10 10 10 10 11 13 10 10 8 7 8 9 9 13 17 15 11 10 12 11 12 12 14 17 19 17 7 7 8 7 7 6 6 5
11 11 8 7 8 11 12 11 11 8 9 9 10 10 11 12 11 12 11 8 8 7 6 7 12 14 18 14 11 13 12 11 13 17 16 16 14 11 9 8 7 6 6 6 6
9 10 9 12 12 11 10 11 11 12 10 10 12 11 12 14 13 13 11 10 8 6 7 10 15 13 12 11 11 10 10 11 13 13 16 13 13 11 9 8 7 6 6 5 5
11 12 10 11 9 11 10 11 12 11 11 12 13 12 12 14 13 14 12 11 11 9 10 9 15 13 14 11 11 12 10 10 11 11 12 12 12 8 8 7 8 7 6 6 5
8 9 11 10 10 11 11 11 11 11 10 11 12 13 13 12 11 11 10 10 10 11 11 12 13 14 16 11 12 15 12 12 12 10 11 14 12 9 10 9 8 8 7 7 6